| time (UTC) | temp C | wind direction | speed KPH | gust KPH | rain 1hr cm | rain 24hr cm | rain mn cm | humidity % | barometer mb |
| 20260831150817 | 23 | 83 | 4.8 | 4.8 | 0.00 | 0.00 | 0.00 | 46 | 1015.3 |
| 20260831150416 | 23 | 56 | 0.0 | 1.6 | 0.00 | 0.00 | 0.00 | 46 | 1015.2 |
| 20260831145614 | 21 | 230 | 0.0 | 0.0 | 0.00 | 0.00 | 0.00 | 47 | 1015.3 |
| 20260831145213 | 21 | 40 | 0.0 | 1.6 | 0.00 | 0.00 | 0.00 | 48 | 1015.3 |
| 20260831144811 | 20 | 45 | 0.0 | 0.0 | 0.00 | 0.00 | 0.00 | 48 | 1015.2 |
| 20260831144409 | 20 | 40 | 0.0 | 0.0 | 0.00 | 0.00 | 0.00 | 48 | 1015.1 |
| 20260831143607 | 19 | 38 | 0.0 | 0.0 | 0.00 | 0.00 | 0.00 | 49 | 1015.1 |
| 20260831142805 | 18 | 42 | 0.0 | 1.6 | 0.00 | 0.00 | 0.00 | 49 | 1015.1 |
| 20260831142403 | 18 | 344 | 0.0 | 1.6 | 0.00 | 0.00 | 0.00 | 49 | 1014.8 |
| 20260831142001 | 18 | 42 | 1.6 | 1.6 | 0.00 | 0.00 | 0.00 | 49 | 1014.9 |
| 20260831141600 | 17 | 301 | 0.0 | 0.0 | 0.00 | 0.00 | 0.00 | 50 | 1014.8 |
| 20260831140758 | 17 | 306 | 0.0 | 0.0 | 0.00 | 0.00 | 0.00 | 50 | 1014.8 |
| 20260831135955 | 16 | 301 | 0.0 | 0.0 | 0.00 | 0.00 | 0.00 | 50 | 1014.7 |
| 20260831135554 | 16 | 308 | 0.0 | 0.0 | 0.00 | 0.00 | 0.00 | 50 | 1014.5 |
| 20260831135153 | 16 | 301 | 0.0 | 0.0 | 0.00 | 0.00 | 0.00 | 50 | 1014.5 |
| 20260831134752 | 16 | 227 | 0.0 | 0.0 | 0.00 | 0.00 | 0.00 | 49 | 1014.4 |
| 20260831134350 | 16 | 236 | 0.0 | 0.0 | 0.00 | 0.00 | 0.00 | 49 | 1014.4 |
| 20260831133146 | 16 | 274 | 0.0 | 0.0 | 0.00 | 0.00 | 0.00 | 49 | 1014.3 |
| 20260831132344 | 16 | 270 | 0.0 | 1.6 | 0.00 | 0.00 | 0.00 | 49 | 1014.3 |
| 20260831131943 | 16 | 283 | 1.6 | 1.6 | 0.00 | 0.00 | 0.00 | 49 | 1014.3 |
| 20260831131542 | 16 | 330 | 0.0 | 0.0 | 0.00 | 0.00 | 0.00 | 49 | 1014.4 |
| 20260831131140 | 16 | 335 | 0.0 | 0.0 | 0.00 | 0.00 | 0.00 | 49 | 1014.4 |
| 20260831130738 | 16 | 308 | 0.0 | 1.6 | 0.00 | 0.00 | 0.00 | 48 | 1014.3 |
| 20260831130337 | 16 | 283 | 1.6 | 1.6 | 0.00 | 0.00 | 0.00 | 48 | 1014.3 |
| 20260831125936 | 16 | 310 | 0.0 | 0.0 | 0.00 | 0.00 | 0.00 | 48 | 1014.3 |
| 20260831125134 | 16 | 297 | 0.0 | 0.0 | 0.00 | 0.00 | 0.00 | 48 | 1014.2 |
| 20260831124733 | 16 | 308 | 0.0 | 0.0 | 0.00 | 0.00 | 0.00 | 48 | 1014.2 |
| 20260831124331 | 16 | 279 | 0.0 | 1.6 | 0.00 | 0.00 | 0.00 | 48 | 1014.2 |
| 20260831123127 | 17 | 308 | 0.0 | 0.0 | 0.00 | 0.00 | 0.00 | 48 | 1014.2 |
| 20260831122726 | 17 | 303 | 0.0 | 0.0 | 0.00 | 0.00 | 0.00 | 48 | 1014.1 |
| 20260831122325 | 17 | 233 | 0.0 | 0.0 | 0.00 | 0.00 | 0.00 | 47 | 1014.2 |
| 20260831121923 | 17 | 235 | 0.0 | 0.0 | 0.00 | 0.00 | 0.00 | 47 | 1014.1 |
| 20260831121522 | 17 | 333 | 0.0 | 0.0 | 0.00 | 0.00 | 0.00 | 47 | 1014.2 |
| 20260831121121 | 17 | 328 | 0.0 | 0.0 | 0.00 | 0.00 | 0.00 | 47 | 1014.1 |
| 20260831120720 | 17 | 288 | 0.0 | 0.0 | 0.00 | 0.00 | 0.00 | 47 | 1014.2 |
| 20260831120318 | 17 | 279 | 0.0 | 0.0 | 0.00 | 0.00 | 0.00 | 47 | 1014.1 |
| 20260831115918 | 17 | 283 | 0.0 | 0.0 | 0.00 | 0.00 | 0.00 | 47 | 1014.1 |
| 20260831115515 | 17 | 297 | 0.0 | 0.0 | 0.00 | 0.00 | 0.00 | 47 | 1014.1 |
| 20260831113911 | 17 | 270 | 0.0 | 0.0 | 0.00 | 0.00 | 0.00 | 46 | 1014.1 |
| 20260831113509 | 18 | 270 | 0.0 | 0.0 | 0.00 | 0.00 | 0.00 | 46 | 1014.1 |
| 20260831113108 | 18 | 237 | 0.0 | 1.6 | 0.00 | 0.00 | 0.00 | 46 | 1014.1 |
| 20260831112706 | 18 | 283 | 1.6 | 1.6 | 0.00 | 0.00 | 0.00 | 46 | 1014.1 |
| 20260831112307 | 18 | 303 | 0.0 | 0.0 | 0.00 | 0.00 | 0.00 | 46 | 1014.2 |
| 20260831111102 | 18 | 231 | 0.0 | 0.0 | 0.00 | 0.00 | 0.00 | 45 | 1014.2 |
| 20260831110259 | 18 | 333 | 0.0 | 1.6 | 0.00 | 0.00 | 0.00 | 45 | 1014.3 |
| 20260831105900 | 18 | 344 | 1.6 | 1.6 | 0.00 | 0.00 | 0.00 | 45 | 1014.3 |
| 20260831105456 | 18 | 328 | 0.0 | 0.0 | 0.00 | 0.00 | 0.00 | 45 | 1014.3 |
| 20260831105055 | 18 | 42 | 0.0 | 1.6 | 0.00 | 0.00 | 0.00 | 45 | 1014.3 |
| 20260831104656 | -17 | 321 | 0.0 | 3.2 | 0.00 | 0.00 | 0.00 | 45 | 1014.3 |
| 20260831104654 | 18 | 321 | 0.0 | 3.2 | 0.00 | 0.00 | 0.00 | 45 | 1014.3 |
| 20260831104252 | 18 | 10 | 1.6 | 3.2 | 0.00 | 0.00 | 0.00 | 45 | 1014.3 |
| 20260831103852 | 352 | 40 | 3.2 | 3.2 | 0.00 | 0.00 | 0.00 | 45 | 101.4 |
| 20260831103450 | 18 | 189 | 0.0 | 3.2 | 0.00 | 0.00 | 0.00 | 45 | 1014.2 |
| 20260831103050 | 18 | 135 | 3.2 | 3.2 | 0.00 | 0.00 | 0.00 | 45 | 1014.3 |
| 20260831102246 | 18 | 135 | 1.6 | 3.2 | 0.00 | 0.00 | 0.00 | 45 | 1014.2 |
| 20260831101845 | 19 | 121 | 3.2 | 3.2 | 0.00 | 0.00 | 0.00 | 45 | 1014.2 |
| 20260831101042 | 19 | 135 | 3.2 | 3.2 | 0.00 | 0.00 | 0.00 | 44 | 1014.4 |
| 20260831100641 | 19 | 139 | 3.2 | 3.2 | 0.00 | 0.00 | 0.00 | 44 | 1014.4 |
| 20260831100240 | 19 | 135 | 3.2 | 3.2 | 0.00 | 0.00 | 0.00 | 44 | 1014.3 |
| 20260831095437 | 19 | 182 | 1.6 | 3.2 | 0.00 | 0.00 | 0.00 | 44 | 1014.2 |
| 20260831095036 | 19 | 148 | 1.6 | 3.2 | 0.00 | 0.00 | 0.00 | 44 | 1014.2 |
| 20260831094635 | 19 | 173 | 1.6 | 3.2 | 0.00 | 0.00 | 0.00 | 44 | 1014.3 |
| 20260831094233 | 19 | 135 | 1.6 | 1.6 | 0.00 | 0.00 | 0.00 | 44 | 1014.3 |
| 20260831093832 | 19 | 135 | 0.0 | 0.0 | 0.00 | 0.00 | 0.00 | 44 | 1014.3 |
| 20260831093431 | 19 | 135 | 0.0 | 1.6 | 0.00 | 0.00 | 0.00 | 44 | 1014.3 |
| 20260831093029 | 19 | 135 | 0.0 | 1.6 | 0.00 | 0.00 | 0.00 | 44 | 1014.2 |
| 20260831092632 | 19 | 137 | 1.6 | 3.2 | 0.00 | 0.00 | 0.00 | 44 | 1014.2 |
| 20260831091826 | 19 | 135 | 3.2 | 6.4 | 0.00 | 0.00 | 0.00 | 44 | 1014.1 |
| 20260831090221 | 19 | 177 | 1.6 | 4.8 | 0.00 | 0.00 | 0.00 | 43 | 1014.1 |
| 20260831085819 | 19 | 135 | 0.0 | 3.2 | 0.00 | 0.00 | 0.00 | 43 | 1014.1 |
| 20260831085418 | 19 | 189 | 1.6 | 4.8 | 0.00 | 0.00 | 0.00 | 43 | 1014.1 |
| 20260831084616 | 20 | 135 | 3.2 | 4.8 | 0.00 | 0.00 | 0.00 | 43 | 1014.2 |
| 20260831083812 | 20 | 186 | 0.0 | 3.2 | 0.00 | 0.00 | 0.00 | 43 | 1014.2 |
| 20260831083644 | 20 | 175 | 3.2 | 4.8 | 0.00 | 0.00 | 0.00 | 43 | 1014.2 |
| 20260831083414 | 20 | 175 | 3.2 | 4.8 | 0.00 | 0.00 | 0.00 | 43 | 1014.2 |
| 20260831082609 | 20 | 191 | 0.0 | 3.2 | 0.00 | 0.00 | 0.00 | 42 | 1014.2 |
| 20260831082208 | 20 | 137 | 3.2 | 4.8 | 0.00 | 0.00 | 0.00 | 42 | 1014.1 |
| 20260831081806 | 20 | 135 | 3.2 | 3.2 | 0.00 | 0.00 | 0.00 | 42 | 1014.1 |
| 20260831081441 | 20 | 157 | 1.6 | 4.8 | 0.00 | 0.00 | 0.00 | 42 | 1014.0 |
| 20260831081406 | 20 | 157 | 1.6 | 4.8 | 0.00 | 0.00 | 0.00 | 42 | 1014.0 |
| 20260831080603 | 20 | 135 | 3.2 | 3.2 | 0.00 | 0.00 | 0.00 | 42 | 1014.0 |
| 20260831080201 | 20 | 139 | 3.2 | 3.2 | 0.00 | 0.00 | 0.00 | 42 | 1014.0 |
| 20260831075800 | 20 | 135 | 3.2 | 3.2 | 0.00 | 0.00 | 0.00 | 42 | 1013.9 |
| 20260831075358 | 20 | 114 | 1.6 | 3.2 | 0.00 | 0.00 | 0.00 | 42 | 1013.9 |
| 20260831074957 | 20 | 135 | 1.6 | 3.2 | 0.00 | 0.00 | 0.00 | 42 | 1014.0 |
| 20260831074557 | 20 | 135 | 1.6 | 3.2 | 0.00 | 0.00 | 0.00 | 42 | 1013.9 |
| 20260831074155 | 20 | 135 | 1.6 | 3.2 | 0.00 | 0.00 | 0.00 | 42 | 1014.0 |
| 20260831073754 | 20 | 135 | 3.2 | 4.8 | 0.00 | 0.00 | 0.00 | 41 | 1013.8 |
| 20260831073353 | 20 | 117 | 4.8 | 4.8 | 0.00 | 0.00 | 0.00 | 41 | 1013.8 |
| 20260831072951 | 20 | 137 | 3.2 | 4.8 | 0.00 | 0.00 | 0.00 | 41 | 1013.7 |
| 20260831072549 | 20 | 135 | 4.8 | 6.4 | 0.00 | 0.00 | 0.00 | 41 | 1013.7 |
| 20260831072148 | 20 | 126 | 4.8 | 4.8 | 0.00 | 0.00 | 0.00 | 41 | 1013.7 |
| 20260831071747 | 20 | 135 | 1.6 | 3.2 | 0.00 | 0.00 | 0.00 | 41 | 1013.6 |
| 20260831071346 | 20 | 114 | 1.6 | 4.8 | 0.00 | 0.00 | 0.00 | 41 | 1013.7 |
| 20260831070946 | 20 | 137 | 1.6 | 4.8 | 0.00 | 0.00 | 0.00 | 41 | 1013.7 |
| 20260831070543 | 21 | 135 | 4.8 | 4.8 | 0.00 | 0.00 | 0.00 | 41 | 1013.7 |
| 20260831070142 | 21 | 130 | 3.2 | 4.8 | 0.00 | 0.00 | 0.00 | 40 | 1013.7 |
| 20260831065742 | 21 | 135 | 4.8 | 4.8 | 0.00 | 0.00 | 0.00 | 40 | 1013.7 |
| 20260831065340 | 21 | 135 | 3.2 | 4.8 | 0.00 | 0.00 | 0.00 | 40 | 1013.7 |
| 20260831064538 | 21 | 110 | 3.2 | 3.2 | 0.00 | 0.00 | 0.00 | 40 | 1013.8 |
| 20260831064135 | 21 | 60 | 1.6 | 3.2 | 0.00 | 0.00 | 0.00 | 40 | 1013.7 |
| 20260831063333 | 21 | 45 | 0.0 | 1.6 | 0.00 | 0.00 | 0.00 | 40 | 1013.7 |
| 20260831062932 | 21 | 40 | 0.0 | 1.6 | 0.00 | 0.00 | 0.00 | 40 | 1013.8 |
| 20260831062531 | 21 | 135 | 1.6 | 3.2 | 0.00 | 0.00 | 0.00 | 40 | 1013.7 |
| 20260831062129 | 21 | 137 | 1.6 | 3.2 | 0.00 | 0.00 | 0.00 | 39 | 1013.7 |
| 20260831061727 | 21 | 171 | 1.6 | 3.2 | 0.00 | 0.00 | 0.00 | 39 | 1013.8 |
| 20260831061326 | 22 | 135 | 3.2 | 3.2 | 0.00 | 0.00 | 0.00 | 39 | 1013.8 |
| 20260831060928 | 22 | 135 | 1.6 | 1.6 | 0.00 | 0.00 | 0.00 | 39 | 1013.8 |
| 20260831060124 | 22 | 135 | 1.6 | 1.6 | 0.00 | 0.00 | 0.00 | 39 | 1013.8 |
| 20260831055722 | 22 | 135 | 3.2 | 3.2 | 0.00 | 0.00 | 0.00 | 39 | 1013.7 |
| 20260831055323 | 22 | 135 | 1.6 | 3.2 | 0.00 | 0.00 | 0.00 | 39 | 1013.8 |
| 20260831054919 | 22 | 121 | 1.6 | 1.6 | 0.00 | 0.00 | 0.00 | 38 | 1013.7 |
| 20260831054116 | 22 | 135 | 3.2 | 3.2 | 0.00 | 0.00 | 0.00 | 38 | 1013.7 |
| 20260831053715 | 22 | 135 | 1.6 | 1.6 | 0.00 | 0.00 | 0.00 | 38 | 1013.7 |
| 20260831053314 | 22 | 159 | 0.0 | 3.2 | 0.00 | 0.00 | 0.00 | 38 | 1013.7 |
| 20260831052110 | 22 | 135 | 1.6 | 3.2 | 0.00 | 0.00 | 0.00 | 38 | 1013.7 |
| 20260831051709 | 22 | 135 | 3.2 | 4.8 | 0.00 | 0.00 | 0.00 | 37 | 1013.7 |
| 20260831050906 | 22 | 135 | 4.8 | 4.8 | 0.00 | 0.00 | 0.00 | 37 | 1013.6 |
| 20260831050103 | 22 | 135 | 3.2 | 4.8 | 0.00 | 0.00 | 0.00 | 37 | 1013.6 |
| 20260831045703 | 23 | 135 | 4.8 | 6.4 | 0.00 | 0.00 | 0.00 | 37 | 1013.7 |
| 20260831044900 | 23 | 78 | 4.8 | 4.8 | 0.00 | 0.00 | 0.00 | 36 | 1013.6 |
| 20260831044459 | 23 | 76 | 3.2 | 3.2 | 0.00 | 0.00 | 0.00 | 36 | 1013.5 |
| 20260831044057 | 23 | 49 | 1.6 | 3.2 | 0.00 | 0.00 | 0.00 | 36 | 1013.5 |
| 20260831043655 | 23 | 38 | 3.2 | 3.2 | 0.00 | 0.00 | 0.00 | 36 | 1013.4 |
| 20260831043254 | 23 | 42 | 1.6 | 1.6 | 0.00 | 0.00 | 0.00 | 36 | 1013.5 |
| 20260831042853 | 23 | 38 | 1.6 | 1.6 | 0.00 | 0.00 | 0.00 | 36 | 1013.4 |
| 20260831042452 | 23 | 60 | 1.6 | 1.6 | 0.00 | 0.00 | 0.00 | 36 | 1013.5 |
| 20260831042052 | -17 | 83 | 0.0 | 1.6 | 1.91 | 0.00 | 1.27 | 35 | 0.1 |
| 20260831041649 | 23 | 99 | 1.6 | 3.2 | 0.00 | 0.00 | 0.00 | 35 | 1013.3 |
| 20260831041248 | 23 | 112 | 3.2 | 3.2 | 0.00 | 0.00 | 0.00 | 35 | 1013.3 |
| 20260831040847 | 24 | 135 | 3.2 | 3.2 | 0.00 | 0.00 | 0.00 | 35 | 1013.3 |
| 20260831040447 | 24 | 137 | 3.2 | 3.2 | 0.00 | 0.00 | 0.00 | 35 | 1013.2 |
| 20260831040045 | 24 | 130 | 1.6 | 4.8 | 0.00 | 0.00 | 0.00 | 35 | 1013.3 |
| 20260831035643 | 24 | 123 | 4.8 | 4.8 | 0.00 | 0.00 | 0.00 | 35 | 1013.1 |
| 20260831035241 | 24 | 76 | 3.2 | 3.2 | 0.00 | 0.00 | 0.00 | 34 | 1013.1 |
| 20260831034840 | 24 | 135 | 3.2 | 4.8 | 0.00 | 0.00 | 0.00 | 34 | 1013.0 |
| 20260831034038 | 24 | 78 | 4.8 | 6.4 | 0.00 | 0.00 | 0.00 | 34 | 1012.8 |
| 20260831033235 | 24 | 130 | 6.4 | 6.4 | 0.00 | 0.00 | 0.00 | 34 | 1012.8 |
| 20260831032438 | 24 | 54 | 1.6 | 4.8 | 0.00 | 0.00 | 0.00 | 33 | 1012.6 |
| 20260831032031 | 24 | 137 | 3.2 | 3.2 | 0.00 | 0.00 | 0.00 | 33 | 1012.5 |
| 20260831031630 | 24 | 146 | 3.2 | 6.4 | 0.00 | 0.00 | 0.00 | 33 | 1012.5 |
| 20260831031230 | 24 | 153 | 4.8 | 4.8 | 0.00 | 0.00 | 0.00 | 33 | 1012.4 |
| 20260831030828 | 24 | 135 | 6.4 | 8.0 | 0.00 | 0.00 | 0.00 | 33 | 1012.4 |
| 20260831030427 | 25 | 137 | 6.4 | 9.7 | 0.00 | 0.00 | 0.00 | 32 | 1012.4 |
| 20260831030026 | 25 | 135 | 9.7 | 9.7 | 0.00 | 0.00 | 0.00 | 32 | 1012.3 |
| 20260831025222 | 25 | 135 | 6.4 | 8.0 | 0.00 | 0.00 | 0.00 | 32 | 1012.3 |
| 20260831024821 | 25 | 139 | 8.0 | 8.0 | 0.00 | 0.00 | 0.00 | 31 | 1012.2 |
| 20260831024423 | 25 | 150 | 6.4 | 9.7 | 0.00 | 0.00 | 0.00 | 31 | 1012.2 |
| 20260831024018 | 25 | 137 | 8.0 | 9.7 | 0.00 | 0.00 | 0.00 | 30 | 1012.3 |
| 20260831023216 | 26 | 128 | 9.7 | 14.5 | 0.00 | 0.00 | 0.00 | 30 | 1012.1 |
| 20260831022815 | 26 | 137 | 11.3 | 14.5 | 0.00 | 0.00 | 0.00 | 29 | 1012.0 |
| 20260831022415 | 26 | 139 | 8.0 | 14.5 | 0.00 | 0.00 | 0.00 | 29 | 1011.9 |
| 20260831022012 | 26 | 135 | 8.0 | 9.7 | 0.00 | 0.00 | 0.00 | 29 | 1012.0 |
| 20260831021611 | 26 | 157 | 6.4 | 12.9 | 0.00 | 0.00 | 0.00 | 28 | 1011.8 |
| 20260831020811 | 27 | 135 | 11.3 | 11.3 | 0.00 | 0.00 | 0.00 | 28 | 1011.8 |
| 20260831015604 | 27 | 137 | 11.3 | 11.3 | 0.00 | 0.00 | 0.00 | 27 | 1011.8 |
| 20260831015206 | 27 | 141 | 12.9 | 14.5 | 0.00 | 0.00 | 0.00 | 26 | 1011.8 |
| 20260831014801 | 28 | 130 | 14.5 | 14.5 | 0.00 | 0.00 | 0.00 | 25 | 1011.8 |
| 20260831014400 | 28 | 119 | 8.0 | 11.3 | 0.00 | 0.00 | 0.00 | 25 | 1011.8 |
| 20260831013959 | 28 | 114 | 9.7 | 14.5 | 0.00 | 0.00 | 0.00 | 25 | 1011.8 |
| 20260831013559 | 28 | 135 | 9.7 | 14.5 | 0.00 | 0.00 | 0.00 | 25 | 1011.9 |
| 20260831012755 | 29 | 135 | 14.5 | 16.1 | 0.00 | 0.00 | 0.00 | 24 | 1011.9 |
| 20260831012354 | 30 | 135 | 14.5 | 14.5 | 0.00 | 0.00 | 0.00 | 24 | 1011.8 |
| 20260831011150 | 31 | 117 | 11.3 | 16.1 | 0.00 | 0.00 | 0.00 | 23 | 1011.7 |
| 20260831010751 | 31 | 160 | 4.8 | 8.0 | 0.00 | 0.00 | 0.00 | 23 | 1011.7 |
| 20260831010347 | 31 | 139 | 4.8 | 14.5 | 0.00 | 0.00 | 0.00 | 23 | 1011.8 |
| 20260831005946 | 31 | 146 | 9.7 | 12.9 | 0.00 | 0.00 | 0.00 | 23 | 1011.8 |
| 20260831005546 | 31 | 135 | 11.3 | 19.3 | 0.00 | 0.00 | 0.00 | 23 | 1011.9 |
| 20260831005144 | 31 | 150 | 11.3 | 17.7 | 0.00 | 0.00 | 0.00 | 22 | 1011.9 |
| 20260831004744 | 32 | 144 | 4.8 | 11.3 | 0.00 | 0.00 | 0.00 | 22 | 1011.9 |
| 20260831004341 | 32 | 135 | 8.0 | 14.5 | 0.00 | 0.00 | 0.00 | 22 | 1011.8 |
| 20260831003939 | 32 | 144 | 14.5 | 14.5 | 0.00 | 0.00 | 0.00 | 22 | 1011.9 |
| 20260831003137 | 32 | 150 | 11.3 | 11.3 | 0.00 | 0.00 | 0.00 | 21 | 1011.8 |
| 20260831002736 | 32 | 164 | 6.4 | 14.5 | 0.00 | 0.00 | 0.00 | 21 | 1011.8 |
| 20260831002335 | 32 | 144 | 9.7 | 16.1 | 0.00 | 0.00 | 0.00 | 20 | 1011.7 |
| 20260831001935 | 33 | 141 | 8.0 | 11.3 | 0.00 | 0.00 | 0.00 | 20 | 1011.8 |
| 20260831001532 | 33 | 180 | 12.9 | 14.5 | 0.00 | 0.00 | 0.00 | 20 | 1011.8 |
| 20260831001131 | 33 | 177 | 9.7 | 9.7 | 0.00 | 0.00 | 0.00 | 20 | 1011.7 |
| 20260831000730 | 33 | 171 | 6.4 | 11.3 | 0.00 | 0.00 | 0.00 | 20 | 1011.8 |
| 20260831000329 | 33 | 182 | 6.4 | 11.3 | 0.00 | 0.00 | 0.00 | 20 | 1011.8 |
| 20260830235927 | 33 | 155 | 9.7 | 14.5 | 0.00 | 0.00 | 0.00 | 20 | 1011.8 |
| 20260830235529 | 33 | 177 | 6.4 | 12.9 | 0.00 | 0.00 | 0.00 | 20 | 1011.8 |
| 20260830234322 | 35 | 165 | 4.8 | 12.9 | 0.00 | 0.00 | 0.00 | 19 | 1011.8 |
| 20260830233921 | 36 | 155 | 9.7 | 14.5 | 0.00 | 0.00 | 0.00 | 19 | 1011.8 |
| 20260830233119 | 36 | 162 | 9.7 | 12.9 | 0.00 | 0.00 | 0.00 | 20 | 1011.8 |
| 20260830232716 | 37 | 195 | 6.4 | 14.5 | 0.00 | 0.00 | 0.00 | 20 | 1012.0 |
| 20260830232315 | 37 | 184 | 11.3 | 12.9 | 0.00 | 0.00 | 0.00 | 20 | 1011.9 |
| 20260830231914 | 37 | 186 | 11.3 | 16.1 | 0.00 | 0.00 | 0.00 | 20 | 1011.9 |
| 20260830230712 | 37 | 144 | 4.8 | 11.3 | 0.00 | 0.00 | 0.00 | 20 | 1012.1 |
| 20260830230309 | 37 | 180 | 8.0 | 11.3 | 0.00 | 0.00 | 0.00 | 20 | 1012.1 |
| 20260830225907 | 37 | 193 | 6.4 | 9.7 | 0.00 | 0.00 | 0.00 | 20 | 1012.0 |
| 20260830225105 | 37 | 171 | 3.2 | 12.9 | 0.00 | 0.00 | 0.00 | 20 | 1012.3 |
| 20260830223901 | 36 | 148 | 6.4 | 20.9 | 0.00 | 0.00 | 0.00 | 20 | 1012.4 |
| 20260830223500 | 35 | 193 | 12.9 | 27.4 | 0.00 | 0.00 | 0.00 | 20 | 1012.5 |
| 20260830223059 | 36 | 150 | 14.5 | 25.7 | 0.00 | 0.00 | 0.00 | 20 | 1012.5 |
| 20260830222658 | 36 | 166 | 11.3 | 20.9 | 0.00 | 0.00 | 0.00 | 20 | 1012.5 |
| 20260830221855 | 35 | 141 | 11.3 | 17.7 | 0.00 | 0.00 | 0.00 | 20 | 1012.7 |
| 20260830221453 | 35 | 182 | 11.3 | 19.3 | 0.00 | 0.00 | 0.00 | 20 | 1012.7 |
| 20260830221052 | 35 | 123 | 14.5 | 17.7 | 0.00 | 0.00 | 0.00 | 20 | 1012.8 |
| 20260830220651 | 35 | 162 | 8.0 | 24.1 | 0.00 | 0.00 | 0.00 | 20 | 1012.8 |
| 20260830220251 | 36 | 177 | 6.4 | 14.5 | 0.00 | 0.00 | 0.00 | 20 | 1012.9 |
| 20260830215849 | 35 | 186 | 12.9 | 19.3 | 0.00 | 0.00 | 0.00 | 20 | 1012.9 |
| 20260830215447 | 35 | 128 | 14.5 | 22.5 | 0.00 | 0.00 | 0.00 | 20 | 1013.0 |
| 20260830215050 | 36 | 189 | 11.3 | 17.7 | 0.00 | 0.00 | 0.00 | 20 | 1013.0 |
| 20260830214646 | 34 | 130 | 12.9 | 0.0 | 0.00 | 0.00 | 0.00 | 20 | 101.3 |
| 20260830214644 | 36 | 130 | 12.9 | 17.7 | 0.00 | 0.00 | 0.00 | 20 | 1013.1 |
| 20260830214243 | 37 | 150 | 6.4 | 16.1 | 0.00 | 0.00 | 0.00 | 20 | 1013.1 |
| 20260830213842 | 37 | 190 | 11.3 | 17.7 | 0.00 | 0.00 | 0.00 | 20 | 1013.2 |
| 20260830213040 | 38 | 185 | 16.1 | 33.8 | 0.00 | 0.00 | 0.00 | 19 | 1013.2 |
| 20260830211434 | 38 | 182 | 17.7 | 17.7 | 0.00 | 0.00 | 0.00 | 20 | 1013.5 |
| 20260830211033 | 38 | 180 | 9.7 | 12.9 | 0.00 | 0.00 | 0.00 | 20 | 1013.4 |
| 20260830210632 | 38 | 171 | 8.0 | 19.3 | 0.00 | 0.00 | 0.00 | 20 | 1013.4 |
| 20260830210230 | 38 | 180 | 11.3 | 12.9 | 0.00 | 0.00 | 0.00 | 20 | 1013.4 |
| 20260830205831 | 38 | 182 | 6.4 | 12.9 | 0.00 | 0.00 | 0.00 | 20 | 1013.5 |
| 20260830205829 | 38 | 182 | 6.4 | 12.9 | 0.00 | 0.00 | 0.00 | 20 | 1013.5 |
| 20260830205428 | 38 | 182 | 11.3 | 14.5 | 0.00 | 0.00 | 0.00 | 20 | 1013.5 |
| 20260830205027 | 37 | 180 | 9.7 | 17.7 | 0.00 | 0.00 | 0.00 | 20 | 1013.5 |
| 20260830204626 | 38 | 175 | 6.4 | 9.7 | 0.00 | 0.00 | 0.00 | 20 | 1013.5 |
| 20260830203421 | 37 | 186 | 9.7 | 25.7 | 0.00 | 0.00 | 0.00 | 20 | 1013.7 |
| 20260830203020 | 37 | 182 | 9.7 | 14.5 | 0.00 | 0.00 | 0.00 | 21 | 1013.7 |
| 20260830202619 | 37 | 166 | 6.4 | 12.9 | 0.00 | 0.00 | 0.00 | 21 | 1013.7 |
| 20260830202218 | 37 | 160 | 4.8 | 16.1 | 0.00 | 0.00 | 0.00 | 21 | 1013.7 |
| 20260830201416 | 38 | 216 | 3.2 | 11.3 | 0.00 | 0.00 | 0.00 | 21 | 1013.8 |
| 20260830201013 | 37 | 164 | 4.8 | 6.4 | 0.00 | 0.00 | 0.00 | 21 | 1013.7 |
| 20260830200211 | 37 | 135 | 9.7 | 14.5 | 0.00 | 0.00 | 0.00 | 21 | 1013.7 |
| 20260830195810 | 37 | 135 | 12.9 | 12.9 | 0.00 | 0.00 | 0.00 | 22 | 1013.7 |
| 20260830195409 | 38 | 126 | 4.8 | 14.5 | 0.00 | 0.00 | 0.00 | 22 | 1013.7 |
| 20260830195009 | 38 | 174 | 8.0 | 14.5 | 0.00 | 0.00 | 0.00 | 22 | 1013.9 |
| 20260830194205 | 38 | 184 | 11.3 | 12.9 | 0.00 | 0.00 | 0.00 | 22 | 1013.9 |
| 20260830193001 | 36 | 155 | 3.2 | 4.8 | 0.00 | 0.00 | 0.00 | 23 | 1014.0 |
| 20260830192559 | 35 | 135 | 4.8 | 16.1 | 0.00 | 0.00 | 0.00 | 23 | 1014.0 |
| 20260830192158 | 35 | 162 | 6.4 | 16.1 | 0.00 | 0.00 | 0.00 | 23 | 1014.0 |
| 20260830191758 | 34 | 256 | 3.2 | 19.3 | 0.00 | 0.00 | 0.00 | 23 | 1014.1 |
| 20260830191357 | 33 | 117 | 9.7 | 25.7 | 0.00 | 0.00 | 0.00 | 23 | 1.0 |
| 20260830190955 | 34 | 135 | 4.8 | 19.3 | 0.00 | 0.00 | 0.00 | 23 | 1014.1 |
| 20260830190553 | 33 | 135 | 11.3 | 24.1 | 0.00 | 0.00 | 0.00 | 23 | 1014.1 |
| 20260830185750 | 33 | 90 | 14.5 | 16.1 | 0.00 | 0.00 | 0.00 | 23 | 1014.1 |
| 20260830185350 | 35 | 110 | 8.0 | 14.5 | 0.00 | 0.00 | 0.00 | 24 | 1014.2 |
| 20260830184948 | 36 | 114 | 9.7 | 12.9 | 0.00 | 0.00 | 0.00 | 24 | 1014.3 |
| 20260830184547 | 37 | 279 | 3.2 | 11.3 | 0.00 | 0.00 | 0.00 | 24 | 1014.1 |
| 20260830184145 | 36 | 180 | 9.7 | 14.5 | 0.00 | 0.00 | 0.00 | 25 | 1014.2 |
| 20260830182943 | 35 | 150 | 9.7 | 14.5 | 0.00 | 0.00 | 0.00 | 25 | 1014.2 |
| 20260830180534 | 33 | 102 | 8.0 | 9.7 | 0.00 | 0.00 | 0.00 | 27 | 1014.3 |
| 20260830180133 | 33 | 184 | 4.8 | 12.9 | 0.00 | 0.00 | 0.00 | 27 | 1014.3 |
| 20260830174527 | 32 | 81 | 6.4 | 11.3 | 0.00 | 0.00 | 0.00 | 27 | 1014.2 |
| 20260830174128 | 32 | 60 | 4.8 | 9.7 | 0.00 | 0.00 | 0.00 | 28 | 1014.0 |
| 20260830172923 | 34 | 145 | 1.6 | 8.0 | 0.00 | 0.00 | 0.00 | 29 | 1014.2 |
| 20260830172522 | 33 | 182 | 3.2 | 9.7 | 0.00 | 0.00 | 0.00 | 30 | 1014.2 |
| 20260830172120 | 32 | 186 | 6.4 | 12.9 | 0.00 | 0.00 | 0.00 | 30 | 1014.3 |
| 20260830171317 | 32 | 80 | 3.2 | 8.0 | 0.00 | 0.00 | 0.00 | 31 | 1014.2 |
| 20260830170916 | 32 | 22 | 1.6 | 3.2 | 0.00 | 0.00 | 0.00 | 31 | 1014.3 |
| 20260830170113 | 30 | 74 | 1.6 | 6.4 | 0.00 | 0.00 | 0.00 | 31 | 1014.2 |
| 20260830165712 | 30 | 87 | 6.4 | 6.4 | 0.00 | 0.00 | 0.00 | 31 | 1014.2 |
| 20260830165310 | 31 | 292 | 1.6 | 4.8 | 0.00 | 0.00 | 0.00 | 32 | 1014.2 |
| 20260830164909 | 30 | 157 | 1.6 | 4.8 | 0.00 | 0.00 | 0.00 | 32 | 1014.2 |
| 20260830164510 | 30 | 301 | 1.6 | 4.8 | 0.00 | 0.00 | 0.00 | 32 | 1014.2 |
| 20260830163705 | 31 | 105 | 4.8 | 4.8 | 0.00 | 0.00 | 0.00 | 33 | 1014.2 |
| 20260830163304 | 31 | 159 | 0.0 | 4.8 | 0.00 | 0.00 | 0.00 | 33 | 1014.1 |
| 20260830162903 | 30 | 272 | 3.2 | 3.2 | 0.00 | 0.00 | 0.00 | 34 | 1014.3 |
| 20260830162102 | -17 | 53 | 968.8 | 0.0 | 0.00 | 0.00 | 0.00 | ||
| 20260830161659 | 30 | 234 | 1.6 | 3.2 | 0.00 | 0.00 | 0.00 | 36 | 1014.4 |
| 20260830161257 | 29 | 135 | 3.2 | 9.7 | 0.00 | 0.00 | 0.00 | 36 | 1014.3 |
| 20260830160858 | 29 | 90 | 6.4 | 9.7 | 0.00 | 0.00 | 0.00 | 37 | 1014.3 |
| 20260830160054 | 29 | 242 | 1.6 | 3.2 | 0.00 | 0.00 | 0.00 | 38 | 1014.3 |
| 20260830155655 | 29 | 297 | 1.6 | 1.6 | 0.00 | 0.00 | 0.00 | 39 | 1014.3 |
| 20260830155252 | 27 | 218 | 0.0 | 4.8 | 0.00 | 0.00 | 0.00 | 39 | 1014.4 |
| 20260830154850 | 26 | 135 | 6.4 | 8.0 | 0.00 | 0.00 | 0.00 | 40 | 1014.5 |
| 20260830154450 | 26 | 139 | 4.8 | 6.4 | 0.00 | 0.00 | 0.00 | 41 | 1014.4 |
| 20260830154047 | 26 | 135 | 6.4 | 8.0 | 0.00 | 0.00 | 0.00 | 41 | 1014.4 |
| 20260830153246 | 26 | 137 | 1.6 | 11.3 | 0.00 | 0.00 | 0.00 | 41 | 1014.4 |
| 20260830152844 | 26 | 99 | 8.0 | 9.7 | 0.00 | 0.00 | 0.00 | 42 | 1014.5 |
| 20260830152442 | 25 | 114 | 6.4 | 6.4 | 0.00 | 0.00 | 0.00 | 43 | 1014.4 |
| 20260830152041 | 25 | 139 | 4.8 | 8.0 | 0.00 | 0.00 | 0.00 | 42 | 1014.4 |
| 20260830151640 | 25 | 114 | 3.2 | 4.8 | 0.00 | 0.00 | 0.00 | 43 | 1014.4 |
| 20260830151239 | 24 | 105 | 1.6 | 4.8 | 0.00 | 0.00 | 0.00 | 43 | 1014.5 |